Voltar ao catálogo

STARLINK-31928

AtivoComunicaçõesVLEO
NORAD 59897·PAYLOAD·🇺🇸 United States

Lançado May 28, 2024 de Cape Canaveral Space Force Station

Loading…

Próximas Passagens (próximas 24 horas)

TLE

AtualizadoSource: CelesTrak SupGP

Época: Sep 15, 2026, 03:35 UTC

1 59897C 24100N   26258.14979167  .00068584  00000+0  24843-2 0  2583
2 59897  43.0021 135.7209 0001457 275.6820 277.4475 15.27542449    14

Acompanhe STARLINK-31928 em tempo real com AllMySat

Download on the App Store